KB3KAV Weather Reports


Display with metric or nautical units.
time (UTC)temp
F
wind
direction
speed
MPH
gust
MPH
rain 1hr
in
rain 24hr
in
rain mn
in
humidity
%
barometer
mb
20260904053811 69 101 0.0 0.0 0.00 0.00 0.00 95 1041.8
20260904052807 69 103 0.0 0.0 0.00 0.00 0.00 95 1041.7
20260904051805 69 93 0.0 0.0 0.00 0.00 0.00 95 1041.7
20260904050801 69 93 0.0 0.0 0.00 0.00 0.00 95 1041.5
20260904045758 69 93 0.0 0.0 0.00 0.00 0.00 95 1041.4
20260904044753 69 93 0.0 0.0 0.00 0.00 0.00 95 1041.7
20260904043751 69 94 1.0 1.0 0.00 0.00 0.00 95 1042.0
20260904042749 69 93 0.0 0.0 0.00 0.00 0.00 95 1042.2
20260904041744 69 94 0.0 0.0 0.00 0.00 0.00 95 1041.9
20260904040742 70 94 0.0 0.0 0.00 0.00 0.00 95 1041.9
20260904035740 70 91 0.0 0.0 0.00 0.23 0.23 95 1042.1
20260904034739 70 88 0.0 0.0 0.00 0.23 0.23 95 1042.2
20260904033737 70 94 0.0 0.0 0.00 0.23 0.23 95 1042.1
20260904032735 70 93 1.0 1.0 0.00 0.23 0.23 95 1042.4
20260904031735 70 92 0.0 1.0 0.00 0.23 0.23 95 1042.4
20260904030732 70 92 0.0 0.0 0.00 0.23 0.23 95 1042.7
20260904025730 70 101 1.0 1.0 0.00 0.23 0.23 95 1042.3
20260904024726 70 91 0.0 0.0 0.00 0.23 0.23 95 1042.4
20260904023723 70 91 0.0 0.0 0.00 0.23 0.23 95 1042.4
20260904022724 71 91 0.0 0.0 0.00 0.23 0.23 95 1042.3
20260904021723 71 92 0.0 0.0 0.00 0.23 0.23 95 1042.2
20260904020719 71 101 0.0 0.0 0.00 0.23 0.23 95 1042.4
20260904015717 72 88 1.0 1.0 0.00 0.23 0.23 94 1042.6
20260904014717 73 75 2.0 3.0 0.00 0.23 0.23 91 1042.5
20260904013714 73 121 3.0 3.0 0.00 0.23 0.23 92 1042.7
20260904012711 73 78 1.0 1.0 0.00 0.23 0.23 93 1042.9
20260904011710 74 86 0.0 0.0 0.00 0.23 0.23 90 1042.8
20260904010706 75 78 1.0 2.0 0.00 0.23 0.23 92 1043.2
20260904005704 75 100 1.0 2.0 0.00 0.23 0.23 92 1042.9
20260904004700 74 154 4.0 5.0 0.00 0.23 0.23 94 1043.1
20260904003656 74 111 0.0 1.0 0.00 0.23 0.23 95 1042.8
20260904002654 74 105 1.0 1.0 0.00 0.23 0.23 95 1042.1
20260904001650 74 97 0.0 0.0 0.00 0.23 0.23 95 1042.1
20260904000651 74 85 0.0 0.0 0.00 0.23 0.23 95 1042.3
20260903235651 74 85 0.0 0.0 0.00 0.23 0.23 95 1041.9
20260903234648 74 86 1.0 1.0 0.00 0.23 0.23 95 1042.1
20260903233646 74 87 0.0 0.0 0.00 0.23 0.23 95 1042.2
20260903232641 75 94 0.0 0.0 0.00 0.23 0.23 95 1042.1
20260903231637 75 93 1.0 1.0 0.00 0.23 0.23 95 1042.0
20260903230633 75 93 0.0 1.0 0.00 0.23 0.23 95 1042.5
20260903225629 76 85 0.0 0.0 0.00 0.23 0.23 95 1042.0
20260903224627 77 89 0.0 0.0 0.00 0.23 0.23 93 1042.1
20260903223624 78 89 0.0 0.0 0.00 0.23 0.23 91 1042.2
20260903222623 79 87 0.0 0.0 0.00 0.23 0.23 89 1042.0
20260903221617 80 86 0.0 0.0 0.00 0.23 0.23 87 1041.9
20260903220614 82 84 0.0 0.0 0.00 0.23 0.23 83 1041.5
20260903215613 84 93 0.0 1.0 0.00 0.23 0.23 79 1041.5
20260903214613 83 101 1.0 1.0 0.00 0.23 0.23 82 1041.8
20260903213609 83 82 0.0 0.0 0.00 0.23 0.23 82 1042.0
20260903212606 81 99 0.0 0.0 0.00 0.23 0.23 85 1041.6
20260903211602 81 104 0.0 1.0 0.00 0.23 0.23 84 1041.4
20260903210600 82 83 0.0 1.0 0.00 0.23 0.23 83 1041.7
20260903205554 82 86 2.0 2.0 0.00 0.23 0.23 82 1041.6
20260903204551 81 90 1.0 1.0 0.00 0.23 0.23 82 1041.7
20260903203547 81 125 1.0 1.0 0.00 0.23 0.23 81 1042.1
20260903202543 81 47 2.0 2.0 0.00 0.23 0.23 80 1041.8
20260903201539 83 121 3.0 5.0 0.00 0.23 0.23 73 1041.9
20260903200533 85 279 3.0 3.0 0.00 0.23 0.23 71 1041.8
20260903195530 84 282 5.0 7.0 0.00 0.23 0.23 69 1042.3
20260903194527 84 264 5.0 6.0 0.00 0.23 0.23 71 1042.5
20260903193524 84 302 4.0 5.0 0.00 0.23 0.23 71 1042.3
20260903192522 84 116 3.0 5.0 0.00 0.23 0.23 72 1042.6
20260903191518 84 276 3.0 6.0 0.00 0.23 0.23 71 1042.6
20260903190518 83 185 4.0 5.0 0.00 0.23 0.23 73 1042.4
20260903185514 84 58 1.0 2.0 0.00 0.23 0.23 73 1042.6
20260903184511 83 284 6.0 7.0 0.00 0.23 0.23 72 1042.9
20260903183510 82 283 7.0 7.0 0.00 0.23 0.23 72 1043.2
20260903182509 82 64 3.0 3.0 0.00 0.23 0.23 73 1043.3
20260903181505 82 280 4.0 5.0 0.00 0.23 0.23 74 1043.5
20260903180500 81 250 5.0 7.0 0.00 0.23 0.23 74 1043.6
20260903175459 81 156 3.0 3.0 0.00 0.23 0.23 76 1043.8
20260903174459 81 278 3.0 6.0 0.00 0.23 0.23 73 1043.5
20260903173455 80 15 3.0 3.0 0.00 0.23 0.23 74 1043.5
20260903172452 80 356 5.0 6.0 0.00 0.23 0.23 75 1043.9
20260903171447 79 48 5.0 6.0 0.00 0.23 0.23 76 1043.7
20260903170442 79 200 3.0 5.0 0.00 0.23 0.23 77 1043.8
20260903165441 79 311 5.0 6.0 0.00 0.23 0.23 79 1043.9
20260903164438 79 355 5.0 5.0 0.00 0.23 0.23 77 1044.1
20260903163433 78 93 2.0 2.0 0.00 0.23 0.23 79 1044.1
20260903162431 77 30 3.0 3.0 0.00 0.23 0.23 80 1044.5
20260903161427 77 259 6.0 7.0 0.00 0.23 0.23 80 1044.4
20260903160422 77 111 3.0 3.0 0.00 0.23 0.23 83 1044.7
20260903155422 76 321 6.0 9.0 0.00 0.23 0.23 82 1044.9
20260903154420 76 278 6.0 8.0 0.00 0.23 0.23 82 1045.1
20260903153416 76 143 4.0 6.0 0.00 0.23 0.23 84 1045.3
20260903152414 75 336 7.0 8.0 0.00 0.23 0.23 88 1045.0
20260903151409 74 356 4.0 5.0 0.00 0.23 0.23 86 1045.2
20260903150404 74 331 5.0 8.0 0.00 0.23 0.23 86 1045.1
20260903145400 73 109 2.0 3.0 0.00 0.23 0.23 89 1044.9
20260903144400 73 78 2.0 2.0 0.00 0.23 0.23 90 1045.2
20260903143359 72 208 3.0 3.0 0.00 0.23 0.23 91 1045.2
20260903142354 72 94 2.0 2.0 0.00 0.23 0.23 91 1045.3
20260903141352 72 130 3.0 3.0 0.00 0.23 0.23 91 1045.3
20260903140348 71 88 4.0 5.0 0.00 0.23 0.23 93 1045.7
20260903135345 71 92 1.0 2.0 0.00 0.23 0.23 93 1045.4
20260903134345 70 249 7.0 9.0 0.00 0.23 0.23 93 1045.5
20260903133345 70 70 2.0 2.0 0.00 0.23 0.23 94 1045.3
20260903132341 70 17 5.0 7.0 0.00 0.23 0.23 94 1045.2
20260903131341 69 102 1.0 1.0 0.00 0.23 0.23 94 1045.0
20260903130341 69 17 6.0 8.0 0.00 0.23 0.23 95 1044.7
20260903125335 68 342 2.0 3.0 0.00 0.23 0.23 95 1044.8
20260903124336 68 298 5.0 7.0 0.00 0.23 0.23 95 1045.2
20260903123335 67 293 5.0 6.0 0.00 0.23 0.23 95 1045.2
20260903122334 67 38 2.0 2.0 0.00 0.23 0.23 95 1045.0
20260903121334 67 69 1.0 2.0 0.00 0.23 0.23 95 1044.8
20260903120334 67 21 3.0 3.0 0.00 0.23 0.23 95 1044.7
20260903115334 67 89 0.0 0.0 0.00 0.23 0.23 95 1044.7
20260903114330 67 90 0.0 0.0 0.00 0.23 0.23 95 1044.7
20260903113326 67 89 0.0 0.0 0.00 0.23 0.23 95 1044.8
20260903112324 67 86 1.0 1.0 0.00 0.23 0.23 95 1044.5
20260903111322 67 81 2.0 2.0 0.00 0.23 0.23 95 1044.0
20260903110320 67 80 1.0 1.0 0.00 0.23 0.23 95 1044.0
20260903105315 67 81 1.0 1.0 0.00 0.23 0.23 95 1044.4
20260903104315 67 99 0.0 0.0 0.00 0.23 0.23 95 1044.2
20260903103314 67 111 2.0 2.0 0.00 0.23 0.23 95 1044.8
20260903102309 67 74 2.0 2.0 0.00 0.23 0.23 95 1045.2
20260903101304 66 94 0.0 1.0 0.00 0.23 0.23 95 1045.3
20260903100259 66 91 0.0 1.0 0.00 0.23 0.23 95 1046.0
20260903095257 67 100 0.0 0.0 0.00 0.23 0.23 95 1045.7
20260903094253 66 3 5.0 6.0 0.05 0.23 0.23 95 1045.8
20260903093249 66 99 0.0 0.0 0.00 0.22 0.22 95 1045.0
20260903092244 65 91 0.0 1.0 0.07 0.22 0.22 95 1045.0
20260903091244 65 103 0.0 0.0 0.00 0.21 0.21 95 1045.2
20260903090238 65 104 0.0 0.0 0.00 0.21 0.21 95 1044.9
20260903085232 65 103 1.0 1.0 0.00 0.21 0.21 95 1044.7
20260903084231 65 97 0.0 0.0 0.00 0.21 0.21 95 1044.6
20260903083226 65 96 0.0 0.0 0.05 0.21 0.21 95 1044.5
20260903082222 65 106 1.0 2.0 0.00 0.20 0.20 95 1044.6
20260903081218 65 86 0.0 1.0 0.00 0.20 0.20 95 1045.0
20260903080217 65 102 0.0 0.0 0.00 0.20 0.20 95 1045.1